Manitowoc, WI

11:17 PM CDT on July 27, 2016 (GMT -0500)
Manitowoc County

Weather History for KMTW - January, 2013

Change the Weather History Date:

Thursday, January 17, 2013

  Actual Average Record
Temperature  
Mean Temperature 17 °F -  
Max Temperature 24 °F 26 °F 46 °F (1990)
Min Temperature 10 °F 9 °F -25 °F (1982)
Degree Days  
Heating Degree Days 48    
Moisture  
Dew Point 4 °F    
Average Humidity 57    
Maximum Humidity 73    
Minimum Humidity 42    
Precipitation  
Precipitation 0.00 in - - ()
Sea Level Pressure  
Sea Level Pressure 30.26 in    
Wind  
Wind Speed 10 mph (WNW)    
Max Wind Speed 18 mph    
Max Gust Speed 25 mph    
Visibility 10 miles    
Events      
Averages and records for this station are not official NWS values.
T = Trace of Precipitation, MM = Missing Value Source: NWS Daily Summary

Daily Weather History Graph

Daily Weather History Graph

Search for Another Location

Airport or City:

Trip Planner

Search our weather history database for the weather conditions in past years. The results will help you decide how hot, cold, wet, or windy it might be!

Date:

Astronomy

Jan. 17, 2013 Rise Set
Actual Time 7:21 AM CST 4:40 PM CST
Civil Twilight 6:49 AM CST 5:12 PM CST
Nautical Twilight 6:13 AM CST 5:48 PM CST
Astronomical Twilight 5:39 AM CST 6:23 PM CST
Moon 10:12 AM CST (1/17) 11:49 PM CST (1/17)
Length of Visible Light 10h 23m
Length of Day
9h 19m
Waxing Crescent, 38% of the Moon is Illuminated
Jan 17
Waxing Crescent
Jan 18
First Quarter
Jan 26
Full
Feb 3
Last Quarter
Feb 10
New

Hourly Weather History & Observations

Time (CST) Temp. Windchill Dew Point Humidity Pressure Visibility Wind Dir Wind Speed Gust Speed Precip Events Conditions
12:15 AM 24.8 °F 16.9 °F 14.0 °F 64% 30.05 in 10.0 mi WNW 6.9 mph - N/A   Mostly Cloudy
12:35 AM 24.8 °F 14.6 °F 12.2 °F 59% 30.06 in 10.0 mi NW 10.4 mph - N/A   Overcast
12:55 AM 24.8 °F 14.6 °F 10.4 °F 54% 30.07 in 10.0 mi NNW 10.4 mph - N/A   Mostly Cloudy
1:15 AM 23.0 °F 14.7 °F 10.4 °F 59% 30.08 in 10.0 mi NW 6.9 mph - N/A   Mostly Cloudy
1:35 AM 21.2 °F 10.9 °F 10.4 °F 63% 30.10 in 10.0 mi WNW 9.2 mph - N/A   Partly Cloudy
1:55 AM 21.2 °F 10.9 °F 10.4 °F 63% 30.10 in 10.0 mi NW 9.2 mph - N/A   Clear
2:15 AM 21.2 °F 11.7 °F 8.6 °F 58% 30.12 in 10.0 mi NW 8.1 mph - N/A   Clear
2:35 AM 21.2 °F 12.6 °F 8.6 °F 58% 30.13 in 10.0 mi NW 6.9 mph - N/A   Clear
2:55 AM 19.4 °F 10.4 °F 8.6 °F 63% 30.14 in 10.0 mi NW 6.9 mph - N/A   Scattered Clouds
3:35 AM 19.4 °F 9.5 °F 8.6 °F 63% 30.14 in 10.0 mi WNW 8.1 mph - N/A   Clear
3:55 AM 19.4 °F 9.5 °F 8.6 °F 63% 30.15 in 10.0 mi WNW 8.1 mph - N/A   Clear
4:15 AM 17.6 °F 5.7 °F 6.8 °F 63% 30.16 in 10.0 mi WNW 10.4 mph - N/A   Clear
4:35 AM 17.6 °F 5.0 °F 6.8 °F 63% 30.16 in 10.0 mi WNW 11.5 mph - N/A   Clear
4:55 AM 17.6 °F 5.7 °F 6.8 °F 63% 30.17 in 10.0 mi WNW 10.4 mph - N/A   Clear
5:15 AM 17.6 °F 6.4 °F 6.8 °F 63% 30.17 in 10.0 mi WNW 9.2 mph - N/A   Clear
5:35 AM 17.6 °F 6.4 °F 6.8 °F 63% 30.18 in 10.0 mi WNW 9.2 mph - N/A   Clear
5:55 AM 15.8 °F 4.2 °F 6.8 °F 68% 30.20 in 10.0 mi WNW 9.2 mph - N/A   Clear
6:15 AM 15.8 °F 3.4 °F 5.0 °F 62% 30.21 in 10.0 mi West 10.4 mph - N/A   Clear
6:35 AM 15.8 °F 3.4 °F 5.0 °F 62% 30.22 in 10.0 mi WNW 10.4 mph - N/A   Clear
6:55 AM 15.8 °F 3.4 °F 5.0 °F 62% 30.23 in 10.0 mi West 10.4 mph - N/A   Partly Cloudy
7:15 AM 15.8 °F 2.7 °F 5.0 °F 62% 30.23 in 10.0 mi West 11.5 mph - N/A   Scattered Clouds
7:35 AM 15.8 °F 4.2 °F 5.0 °F 62% 30.25 in 10.0 mi WNW 9.2 mph - N/A   Partly Cloudy
7:55 AM 15.8 °F 3.4 °F 5.0 °F 62% 30.25 in 10.0 mi WNW 10.4 mph - N/A   Clear
8:15 AM 15.8 °F 2.7 °F 5.0 °F 62% 30.26 in 10.0 mi WNW 11.5 mph - N/A   Clear
8:35 AM 15.8 °F 2.1 °F 5.0 °F 62% 30.28 in 10.0 mi WNW 12.7 mph - N/A   Clear
8:55 AM 15.8 °F 1.4 °F 5.0 °F 62% 30.28 in 10.0 mi WNW 13.8 mph - N/A   Clear
9:15 AM 15.8 °F 0.9 °F 5.0 °F 62% 30.29 in 10.0 mi WNW 15.0 mph 23.0 mph N/A   Clear
9:35 AM 15.8 °F 0.3 °F 5.0 °F 62% 30.29 in 10.0 mi WNW 16.1 mph - N/A   Clear
9:55 AM 17.6 °F 3.7 °F 5.0 °F 58% 30.29 in 10.0 mi NW 13.8 mph 19.6 mph N/A   Clear
10:15 AM 17.6 °F 5.0 °F 6.8 °F 63% 30.30 in 10.0 mi WNW 11.5 mph - N/A   Clear
10:35 AM 17.6 °F 3.2 °F 3.2 °F 53% 30.30 in 10.0 mi WNW 15.0 mph - N/A   Clear
10:55 AM 17.6 °F 3.2 °F 3.2 °F 53% 30.30 in 10.0 mi WNW 15.0 mph 21.9 mph N/A   Clear
11:15 AM 17.6 °F 3.2 °F 1.4 °F 49% 30.30 in 10.0 mi WNW 15.0 mph 24.2 mph N/A   Clear
11:35 AM 17.6 °F 2.2 °F 1.4 °F 49% 30.30 in 10.0 mi WNW 17.3 mph 23.0 mph N/A   Clear
12:15 PM 17.6 °F 5.7 °F 3.2 °F 53% 30.28 in 10.0 mi WNW 10.4 mph - N/A   Clear
12:35 PM 19.4 °F 7.9 °F -0.4 °F 42% 30.27 in 10.0 mi West 10.4 mph - N/A   Clear
12:55 PM 19.4 °F 6.6 °F 1.4 °F 46% 30.26 in 10.0 mi WNW 12.7 mph 19.6 mph N/A   Clear
1:15 PM 19.4 °F 6.6 °F 1.4 °F 46% 30.26 in 10.0 mi West 12.7 mph - N/A   Clear
1:35 PM 21.2 °F 7.8 °F 1.4 °F 42% 30.25 in 10.0 mi WNW 15.0 mph - N/A   Clear
1:55 PM 21.2 °F 8.3 °F 1.4 °F 42% 30.26 in 10.0 mi WNW 13.8 mph 20.7 mph N/A   Clear
2:15 PM 21.2 °F 7.3 °F 1.4 °F 42% 30.26 in 10.0 mi West 16.1 mph 25.3 mph N/A   Partly Cloudy
2:35 PM 21.2 °F 7.8 °F 1.4 °F 42% 30.27 in 10.0 mi West 15.0 mph 21.9 mph N/A   Scattered Clouds
2:55 PM 19.4 °F 5.5 °F 1.4 °F 46% 30.27 in 10.0 mi NW 15.0 mph - N/A   Partly Cloudy
3:15 PM 19.4 °F 5.0 °F 1.4 °F 46% 30.27 in 10.0 mi West 16.1 mph 24.2 mph N/A   Clear
3:35 PM 19.4 °F 4.1 °F 1.4 °F 46% 30.27 in 10.0 mi WNW 18.4 mph - N/A   Clear
3:55 PM 19.4 °F 4.5 °F 1.4 °F 46% 30.28 in 10.0 mi WNW 17.3 mph 24.2 mph N/A   Clear
4:15 PM 17.6 °F 3.7 °F 1.4 °F 49% 30.28 in 10.0 mi WNW 13.8 mph 20.7 mph N/A   Clear
4:35 PM 17.6 °F 5.0 °F 1.4 °F 49% 30.29 in 10.0 mi WNW 11.5 mph 18.4 mph N/A   Clear
4:55 PM 17.6 °F 4.3 °F 1.4 °F 49% 30.30 in 10.0 mi WNW 12.7 mph 18.4 mph N/A   Clear
5:15 PM 17.6 °F 5.0 °F 1.4 °F 49% 30.31 in 10.0 mi WNW 11.5 mph - N/A   Clear
5:35 PM 17.6 °F 5.0 °F 1.4 °F 49% 30.31 in 10.0 mi WNW 11.5 mph 17.3 mph N/A   Clear
5:55 PM 15.8 °F 2.7 °F 1.4 °F 53% 30.32 in 10.0 mi WNW 11.5 mph - N/A   Clear
6:15 PM 15.8 °F 3.4 °F 1.4 °F 53% 30.32 in 10.0 mi WNW 10.4 mph - N/A   Clear
6:35 PM 15.8 °F 3.4 °F 1.4 °F 53% 30.33 in 10.0 mi WNW 10.4 mph - N/A   Clear
6:55 PM 15.8 °F 4.2 °F 3.2 °F 58% 30.34 in 10.0 mi WNW 9.2 mph - N/A   Clear
7:15 PM 15.8 °F 5.1 °F 3.2 °F 58% 30.34 in 10.0 mi WNW 8.1 mph - N/A   Clear
7:35 PM 14.0 °F 2.9 °F 3.2 °F 62% 30.35 in 10.0 mi WNW 8.1 mph - N/A   Clear
7:55 PM 14.0 °F 3.9 °F 1.4 °F 57% 30.35 in 10.0 mi WNW 6.9 mph - N/A   Clear
8:15 PM 14.0 °F 5.1 °F 3.2 °F 62% 30.35 in 10.0 mi WNW 5.8 mph - N/A   Clear
8:55 PM 12.2 °F 4.3 °F 1.4 °F 62% 30.35 in 10.0 mi WNW 4.6 mph - N/A   Clear
9:15 PM 14.0 °F 8.2 °F 1.4 °F 57% 30.36 in 10.0 mi West 3.5 mph - N/A   Clear
9:35 PM 12.2 °F 4.3 °F 3.2 °F 67% 30.36 in 10.0 mi WNW 4.6 mph - N/A   Clear
9:55 PM 12.2 °F 4.3 °F 1.4 °F 62% 30.36 in 10.0 mi WNW 4.6 mph - N/A   Clear
10:15 PM 12.2 °F 4.3 °F 1.4 °F 62% 30.36 in 10.0 mi WNW 4.6 mph - N/A   Clear
10:35 PM 12.2 °F 4.3 °F 1.4 °F 62% 30.35 in 10.0 mi WNW 4.6 mph - N/A   Clear
10:55 PM 12.2 °F 4.3 °F 3.2 °F 67% 30.35 in 10.0 mi WNW 4.6 mph - N/A   Clear
11:15 PM 10.4 °F - -0.4 °F 62% 30.36 in 10.0 mi Calm Calm - N/A   Clear
11:35 PM 10.4 °F 4.0 °F 3.2 °F 73% 30.36 in 10.0 mi NW 3.5 mph - N/A   Clear
11:55 PM 10.4 °F - 3.2 °F 73% 30.37 in 10.0 mi Calm Calm - N/A   Clear